| time (UTC) | temp C | wind direction | speed KPH | gust KPH | rain 1hr cm | rain 24hr cm | rain mn cm | humidity % | barometer mb |
| 20260507213057 | 15 | 311 | 8.0 | 17.7 | 0.00 | 0.25 | 0.05 | 34 | 1010.4 |
| 20260507211542 | 15 | 288 | 6.4 | 19.3 | 0.00 | 0.25 | 0.05 | 32 | 1010.9 |
| 20260507210042 | 15 | 19 | 12.9 | 24.1 | 0.00 | 0.25 | 0.05 | 29 | 1011.3 |
| 20260507204538 | 16 | 323 | 8.0 | 16.1 | 0.00 | 0.33 | 0.05 | 31 | 1011.7 |
| 20260507203030 | 15 | 300 | 6.4 | 20.9 | 0.00 | 0.33 | 0.05 | 34 | 1012.0 |
| 20260507201527 | 15 | 219 | 12.9 | 20.9 | 0.00 | 0.33 | 0.05 | 32 | 1012.4 |
| 20260507200032 | 15 | 280 | 8.0 | 22.5 | 0.00 | 0.43 | 0.05 | 31 | 1012.8 |
| 20260507194521 | 15 | 275 | 4.8 | 19.3 | 0.00 | 0.43 | 0.05 | 33 | 1013.2 |
| 20260507193022 | 15 | 254 | 9.7 | 19.3 | 0.00 | 0.43 | 0.05 | 34 | 1013.4 |
| 20260507191514 | 14 | 219 | 6.4 | 20.9 | 0.00 | 0.43 | 0.05 | 32 | 1013.7 |
| 20260507190022 | 14 | 260 | 9.7 | 19.3 | 0.00 | 0.46 | 0.05 | 30 | 1014.1 |
| 20260507184509 | 13 | 205 | 9.7 | 17.7 | 0.00 | 0.46 | 0.05 | 29 | 1014.2 |
| 20260507183015 | 13 | 309 | 1.6 | 11.3 | 0.00 | 0.46 | 0.05 | 29 | 1014.4 |
| 20260507181506 | 13 | 272 | 1.6 | 11.3 | 0.00 | 0.46 | 0.05 | 29 | 1014.5 |
| 20260507180106 | 13 | 291 | 3.2 | 11.3 | 0.00 | 0.46 | 0.05 | 26 | 1014.9 |
| 20260507174558 | 13 | 328 | 4.8 | 14.5 | 0.00 | 0.46 | 0.05 | 28 | 1015.1 |
| 20260507173057 | 13 | 248 | 9.7 | 16.1 | 0.00 | 0.46 | 0.05 | 33 | 1015.5 |
| 20260507171556 | 12 | 314 | 6.4 | 11.3 | 0.03 | 0.46 | 0.05 | 29 | 1015.8 |
| 20260507170050 | 12 | 236 | 3.2 | 20.9 | 0.03 | 0.46 | 0.05 | 34 | 1016.2 |
| 20260507164546 | 12 | 248 | 8.0 | 17.7 | 0.03 | 0.46 | 0.05 | 31 | 1016.4 |
| 20260507163042 | 11 | 277 | 1.6 | 11.3 | 0.03 | 0.46 | 0.05 | 30 | 1016.6 |
| 20260507161540 | 11 | 239 | 6.4 | 14.5 | 0.03 | 0.43 | 0.03 | 33 | 1016.8 |
| 20260507160037 | 11 | 248 | 4.8 | 12.9 | 0.03 | 0.43 | 0.03 | 36 | 1017.1 |
| 20260507154532 | 10 | 241 | 6.4 | 14.5 | 0.03 | 0.43 | 0.03 | 38 | 1017.5 |
| 20260507153026 | 9 | 260 | 6.4 | 14.5 | 0.03 | 0.43 | 0.03 | 42 | 1017.7 |
| 20260507151522 | 8 | 270 | 8.0 | 20.9 | 0.00 | 0.41 | 0.00 | 45 | 1017.8 |
| 20260507150018 | 7 | 273 | 8.0 | 14.5 | 0.00 | 0.41 | 0.00 | 47 | 1017.8 |
| 20260507144515 | 7 | 280 | 4.8 | 12.9 | 0.00 | 0.41 | 0.00 | 49 | 1018.1 |
| 20260507143012 | 6 | 266 | 4.8 | 11.3 | 0.00 | 0.41 | 0.00 | 48 | 1018.3 |
| 20260507141508 | 6 | 274 | 1.6 | 8.0 | 0.00 | 0.41 | 0.00 | 50 | 1018.3 |
| 20260507140006 | 5 | 246 | 3.2 | 8.0 | 0.00 | 0.41 | 0.00 | 50 | 1018.4 |
| 20260507134502 | 5 | 197 | 3.2 | 8.0 | 0.00 | 0.41 | 0.00 | 50 | 1018.3 |
| 20260507133059 | 4 | 218 | 0.0 | 8.0 | 0.00 | 0.41 | 0.00 | 50 | 1018.2 |
| 20260507131604 | 3 | 260 | 0.0 | 8.0 | 0.00 | 0.41 | 0.00 | 53 | 1018.2 |
| 20260507130056 | 1 | 218 | 0.0 | 4.8 | 0.00 | 0.41 | 0.00 | 57 | 1018.3 |
| 20260507124557 | 0 | 218 | 0.0 | 3.2 | 0.00 | 0.41 | 0.00 | 61 | 1018.2 |
| 20260507123053 | -1 | 61 | 0.0 | 3.2 | 0.00 | 0.41 | 0.00 | 71 | 1018.1 |
| 20260507121543 | -2 | 15 | 1.6 | 4.8 | 0.00 | 0.41 | 0.00 | 73 | 1017.9 |
| 20260507120040 | -1 | 254 | 0.0 | 1.6 | 0.00 | 0.41 | 0.00 | 65 | 1017.9 |
| 20260507114540 | -1 | 17 | 0.0 | 3.2 | 0.00 | 0.41 | 0.00 | 68 | 1018.1 |
| 20260507113035 | -2 | 223 | 0.0 | 4.8 | 0.00 | 0.41 | 0.00 | 72 | 1018.2 |
| 20260507111529 | -4 | 60 | 0.0 | 0.0 | 0.00 | 0.41 | 0.00 | 84 | 1018.2 |
| 20260507110029 | -4 | 32 | 0.0 | 4.8 | 0.00 | 0.41 | 0.00 | 85 | 1018.1 |
| 20260507104527 | -4 | 21 | 1.6 | 4.8 | 0.00 | 0.41 | 0.00 | 86 | 1018.1 |
| 20260507103025 | -4 | 30 | 1.6 | 8.0 | 0.00 | 0.41 | 0.00 | 87 | 1018.0 |
| 20260507101533 | -4 | 13 | 3.2 | 6.4 | 0.00 | 0.41 | 0.00 | 88 | 1018.2 |
| 20260507100031 | -4 | 39 | 0.0 | 4.8 | 0.00 | 0.41 | 0.00 | 88 | 1018.3 |
| 20260507094522 | -4 | 35 | 1.6 | 4.8 | 0.00 | 0.41 | 0.00 | 89 | 1018.1 |
| 20260507093033 | -4 | 39 | 1.6 | 4.8 | 0.00 | 0.41 | 0.00 | 89 | 1018.1 |
| 20260507091518 | -4 | 25 | 1.6 | 3.2 | 0.00 | 0.41 | 0.00 | 90 | 1018.2 |
| 20260507090028 | -4 | 21 | 0.0 | 4.8 | 0.00 | 0.41 | 0.00 | 90 | 1018.2 |
| 20260507084516 | -4 | 18 | 1.6 | 3.2 | 0.00 | 0.41 | 0.00 | 91 | 1018.2 |
| 20260507083031 | -4 | 29 | 3.2 | 4.8 | 0.00 | 0.41 | 0.00 | 91 | 1018.3 |
| 20260507081512 | -4 | 43 | 1.6 | 3.2 | 0.00 | 0.41 | 0.00 | 91 | 1018.3 |
| 20260507080009 | -4 | 44 | 1.6 | 3.2 | 0.00 | 0.41 | 0.00 | 91 | 1018.4 |
| 20260507074522 | -4 | 79 | 0.0 | 3.2 | 0.00 | 0.41 | 0.00 | 90 | 1018.5 |
| 20260507073007 | -4 | 38 | 1.6 | 3.2 | 0.00 | 0.41 | 0.00 | 90 | 1018.6 |
| 20260507071505 | -4 | 39 | 0.0 | 3.2 | 0.00 | 0.41 | 0.00 | 90 | 1018.5 |
| 20260507070007 | -4 | 65 | 1.6 | 3.2 | 0.00 | 0.41 | 0.00 | 89 | 1018.6 |
| 20260507064503 | -3 | 66 | 0.0 | 1.6 | 0.00 | 0.41 | 0.00 | 89 | 1018.6 |
| 20260507063101 | -3 | 90 | 0.0 | 1.6 | 0.00 | 0.41 | 0.00 | 89 | 1018.6 |
| 20260507061556 | -3 | 91 | 0.0 | 1.6 | 0.00 | 0.41 | 0.00 | 90 | 1018.5 |
| 20260507060052 | -3 | 91 | 0.0 | 1.6 | 0.00 | 0.41 | 0.00 | 90 | 1018.5 |
| 20260507054603 | -2 | 129 | 0.0 | 0.0 | 0.00 | 0.41 | 0.41 | 89 | 1018.3 |
| 20260507053055 | -2 | 129 | 0.0 | 1.6 | 0.00 | 0.41 | 0.41 | 89 | 1018.3 |
| 20260507051550 | -2 | 119 | 0.0 | 3.2 | 0.00 | 0.41 | 0.41 | 90 | 1018.1 |
| 20260507050049 | -2 | 132 | 0.0 | 4.8 | 0.00 | 0.41 | 0.41 | 89 | 1018.2 |
| 20260507044550 | -2 | 203 | 1.6 | 8.0 | 0.00 | 0.41 | 0.41 | 90 | 1018.1 |
| 20260507043048 | -2 | 201 | 3.2 | 6.4 | 0.00 | 0.41 | 0.41 | 89 | 1018.1 |
| 20260507041551 | -2 | 210 | 3.2 | 9.7 | 0.00 | 0.41 | 0.41 | 90 | 1018.2 |
| 20260507040057 | -2 | 149 | 1.6 | 6.4 | 0.00 | 0.41 | 0.41 | 90 | 1018.2 |
| 20260507034554 | -2 | 169 | 0.0 | 3.2 | 0.00 | 0.41 | 0.41 | 91 | 1018.1 |
| 20260507033046 | -2 | 195 | 0.0 | 3.2 | 0.00 | 0.41 | 0.41 | 90 | 1018.1 |
| 20260507031543 | -2 | 148 | 0.0 | 6.4 | 0.00 | 0.41 | 0.41 | 90 | 1018.0 |
| 20260507030041 | -1 | 190 | 0.0 | 11.3 | 0.00 | 0.41 | 0.41 | 90 | 1017.7 |
| 20260507024539 | -1 | 205 | 0.0 | 6.4 | 0.00 | 0.41 | 0.41 | 89 | 1017.7 |
| 20260507023039 | -1 | 151 | 1.6 | 4.8 | 0.00 | 0.41 | 0.41 | 87 | 1017.6 |
| 20260507021538 | -1 | 200 | 0.0 | 6.4 | 0.00 | 0.41 | 0.41 | 87 | 1017.6 |
| 20260507020038 | -1 | 153 | 1.6 | 6.4 | 0.00 | 0.41 | 0.41 | 84 | 1017.3 |
| 20260507014537 | 0 | 168 | 3.2 | 9.7 | 0.00 | 0.41 | 0.41 | 80 | 1017.3 |
| 20260507013039 | 0 | 166 | 4.8 | 11.3 | 0.00 | 0.41 | 0.41 | 79 | 1017.3 |
| 20260507011540 | 1 | 174 | 6.4 | 14.5 | 0.00 | 0.41 | 0.41 | 78 | 1017.3 |
| 20260507010034 | 0 | 129 | 3.2 | 11.3 | 0.00 | 0.41 | 0.41 | 79 | 1017.2 |
| 20260507004533 | 1 | 143 | 4.8 | 12.9 | 0.00 | 0.41 | 0.41 | 76 | 1017.0 |
| 20260507003033 | 2 | 158 | 4.8 | 16.1 | 0.03 | 0.41 | 0.41 | 75 | 1017.0 |
| 20260507001543 | 2 | 123 | 6.4 | 12.9 | 0.03 | 0.41 | 0.41 | 71 | 1016.9 |
| 20260507000032 | 2 | 206 | 6.4 | 17.7 | 0.05 | 0.41 | 0.41 | 71 | 1017.0 |
| 20260506234541 | 2 | 214 | 3.2 | 9.7 | 0.05 | 0.43 | 0.41 | 73 | 1016.9 |
| 20260506233027 | 2 | 283 | 3.2 | 9.7 | 0.05 | 0.41 | 0.38 | 71 | 1017.1 |
| 20260506231525 | 1 | 212 | 1.6 | 6.4 | 0.05 | 0.41 | 0.38 | 72 | 1017.0 |
| 20260506230022 | 1 | 250 | 0.0 | 6.4 | 0.05 | 0.43 | 0.36 | 74 | 1017.0 |
| 20260506224526 | 1 | 253 | 0.0 | 6.4 | 0.08 | 0.43 | 0.36 | 77 | 1016.9 |
| 20260506223018 | 0 | 306 | 0.0 | 6.4 | 0.10 | 0.41 | 0.33 | 76 | 1017.1 |
| 20260506221516 | 0 | 24 | 4.8 | 14.5 | 0.13 | 0.41 | 0.33 | 80 | 1017.2 |
| 20260506220015 | 0 | 33 | 4.8 | 14.5 | 0.10 | 0.41 | 0.30 | 79 | 1017.2 |
| 20260506214515 | 0 | 33 | 6.4 | 19.3 | 0.10 | 0.38 | 0.28 | 81 | 1017.1 |